Precipitable_Water
1.35 1.37 1.41 1.38 1.41 1.45 1.50 1.51 1.53 1.53 1.56 1.55 1.56 1.53 1.52 1.51 1.47 1.42 1.39 1.35 1.34 1.33 1.32 1.33 1.32 1.32 1.29 1.30 1.31 1.34 1.35 1.38 1.41 1.42 1.42 1.42 1.40 1.37 1.32 1.30 1.31 1.34 1.35 1.37 1.40 1.43 1.46 1.48 1.51 1.52 1.55 1.57 1.59 1.60 1.62 1.63 1.65 1.65 1.64 1.62 1.58 1.54 1.49 1.45 1.40 1.37 1.33 1.29 1.28 1.27 1.26 1.26 1.26 1.27 1.29 1.32 1.35 1.39 1.42 1.45 1.49 1.52 1.53 1.55 1.56
1.37 1.43 1.44 1.41 1.45 1.50 1.54 1.54 1.55 1.58 1.58 1.55 1.58 1.56 1.51 1.49 1.47 1.42 1.37 1.35 1.35 1.36 1.36 1.32 1.32 1.31 1.32 1.31 1.31 1.33 1.37 1.39 1.42 1.42 1.41 1.39 1.36 1.34 1.30 1.29 1.31 1.36 1.38 1.38 1.40 1.42 1.46 1.49 1.52 1.55 1.56 1.58 1.60 1.61 1.62 1.63 1.64 1.65 1.65 1.64 1.61 1.57 1.53 1.49 1.45 1.41 1.37 1.33 1.30 1.28 1.26 1.26 1.27 1.28 1.29 1.30 1.31 1.33 1.36 1.38 1.42 1.45 1.49 1.56 1.68
1.49 1.50 1.50 1.48 1.49 1.52 1.54 1.58 1.58 1.60 1.61 1.59 1.61 1.59 1.56 1.50 1.44 1.40 1.38 1.37 1.37 1.41 1.38 1.34 1.33 1.33 1.33 1.31 1.32 1.36 1.37 1.40 1.43 1.43 1.39 1.38 1.36 1.36 1.36 1.33 1.35 1.39 1.41 1.42 1.45 1.48 1.49 1.52 1.55 1.58 1.60 1.61 1.61 1.62 1.63 1.64 1.65 1.67 1.67 1.64 1.61 1.58 1.54 1.51 1.49 1.46 1.43 1.39 1.34 1.31 1.29 1.27 1.26 1.26 1.26 1.26 1.27 1.29 1.32 1.36 1.38 1.41 1.48 1.57 1.72
1.59 1.59 1.55 1.54 1.55 1.56 1.58 1.58 1.58 1.63 1.64 1.62 1.60 1.60 1.55 1.50 1.47 1.45 1.43 1.42 1.40 1.41 1.39 1.35 1.33 1.33 1.34 1.33 1.35 1.34 1.35 1.38 1.39 1.40 1.38 1.38 1.38 1.39 1.40 1.39 1.38 1.37 1.37 1.40 1.46 1.51 1.54 1.56 1.59 1.62 1.65 1.66 1.66 1.65 1.64 1.64 1.66 1.67 1.66 1.64 1.60 1.57 1.54 1.51 1.49 1.48 1.46 1.41 1.37 1.33 1.29 1.27 1.25 1.25 1.24 1.25 1.26 1.28 1.32 1.37 1.40 1.41 1.44 1.50 1.66
1.64 1.62 1.59 1.59 1.61 1.60 1.58 1.59 1.61 1.65 1.65 1.61 1.60 1.59 1.57 1.50 1.46 1.45 1.46 1.43 1.39 1.36 1.37 1.35 1.32 1.34 1.34 1.34 1.35 1.33 1.36 1.38 1.39 1.39 1.37 1.38 1.40 1.41 1.41 1.40 1.40 1.40 1.39 1.41 1.43 1.47 1.53 1.58 1.60 1.62 1.63 1.66 1.66 1.66 1.65 1.65 1.65 1.65 1.65 1.62 1.58 1.54 1.52 1.50 1.48 1.46 1.44 1.40 1.37 1.35 1.33 1.32 1.30 1.28 1.28 1.28 1.29 1.31 1.34 1.39 1.43 1.45 1.44 1.50 1.65
1.69 1.63 1.63 1.62 1.62 1.62 1.60 1.60 1.64 1.66 1.62 1.60 1.57 1.57 1.53 1.49 1.41 1.41 1.39 1.37 1.33 1.33 1.32 1.29 1.33 1.33 1.33 1.35 1.35 1.34 1.35 1.35 1.37 1.37 1.37 1.37 1.40 1.39 1.40 1.41 1.42 1.44 1.47 1.48 1.48 1.49 1.52 1.54 1.57 1.60 1.63 1.65 1.66 1.67 1.68 1.68 1.67 1.67 1.66 1.62 1.58 1.53 1.50 1.47 1.46 1.46 1.45 1.44 1.42 1.40 1.38 1.38 1.36 1.35 1.34 1.32 1.32 1.33 1.35 1.38 1.42 1.44 1.45 1.48 1.66
1.74 1.66 1.64 1.65 1.63 1.63 1.63 1.63 1.66 1.64 1.60 1.60 1.58 1.57 1.54 1.47 1.42 1.36 1.37 1.37 1.35 1.33 1.33 1.31 1.29 1.27 1.30 1.34 1.32 1.34 1.35 1.34 1.36 1.34 1.34 1.36 1.38 1.36 1.38 1.39 1.42 1.45 1.47 1.49 1.51 1.52 1.53 1.54 1.56 1.59 1.62 1.64 1.65 1.67 1.68 1.69 1.69 1.68 1.66 1.62 1.59 1.55 1.52 1.53 1.53 1.51 1.48 1.44 1.42 1.40 1.39 1.38 1.38 1.38 1.39 1.40 1.39 1.40 1.40 1.40 1.41 1.43 1.44 1.45 1.54
1.74 1.71 1.65 1.66 1.65 1.65 1.66 1.67 1.66 1.64 1.60 1.58 1.59 1.53 1.52 1.47 1.45 1.41 1.31 1.30 1.33 1.31 1.32 1.30 1.29 1.26 1.30 1.33 1.34 1.34 1.32 1.32 1.31 1.32 1.33 1.34 1.34 1.36 1.38 1.40 1.43 1.46 1.47 1.49 1.51 1.51 1.50 1.53 1.56 1.59 1.61 1.62 1.63 1.65 1.66 1.67 1.69 1.70 1.69 1.64 1.60 1.57 1.58 1.59 1.59 1.58 1.57 1.55 1.52 1.49 1.45 1.43 1.40 1.37 1.38 1.41 1.44 1.45 1.44 1.43 1.43 1.42 1.42 1.42 1.48
1.73 1.70 1.67 1.67 1.67 1.67 1.68 1.68 1.68 1.64 1.58 1.56 1.57 1.58 1.53 1.45 1.46 1.45 1.41 1.32 1.32 1.28 1.28 1.29 1.27 1.28 1.30 1.31 1.32 1.32 1.30 1.32 1.31 1.32 1.33 1.31 1.32 1.35 1.36 1.39 1.42 1.44 1.49 1.52 1.53 1.53 1.53 1.53 1.56 1.58 1.61 1.63 1.65 1.65 1.64 1.64 1.66 1.68 1.69 1.68 1.60 1.57 1.57 1.59 1.60 1.60 1.60 1.60 1.60 1.60 1.57 1.53 1.49 1.45 1.40 1.40 1.45 1.48 1.48 1.46 1.44 1.42 1.39 1.40 1.45
1.72 1.69 1.69 1.70 1.71 1.69 1.69 1.69 1.69 1.63 1.58 1.56 1.58 1.62 1.58 1.52 1.45 1.47 1.44 1.37 1.30 1.28 1.26 1.28 1.27 1.27 1.27 1.28 1.30 1.32 1.32 1.33 1.33 1.33 1.32 1.30 1.31 1.32 1.34 1.37 1.39 1.41 1.44 1.46 1.49 1.53 1.56 1.58 1.58 1.60 1.61 1.62 1.64 1.66 1.67 1.65 1.62 1.63 1.65 1.65 1.59 1.53 1.55 1.57 1.57 1.58 1.60 1.61 1.61 1.61 1.60 1.59 1.56 1.53 1.47 1.43 1.43 1.45 1.46 1.48 1.46 1.40 1.36 1.38 1.44
1.70 1.69 1.68 1.69 1.69 1.70 1.70 1.70 1.69 1.61 1.58 1.56 1.58 1.60 1.58 1.56 1.50 1.45 1.47 1.42 1.34 1.31 1.29 1.29 1.26 1.26 1.26 1.27 1.30 1.31 1.32 1.34 1.35 1.33 1.32 1.32 1.33 1.35 1.40 1.41 1.42 1.43 1.45 1.48 1.49 1.51 1.52 1.55 1.58 1.61 1.64 1.64 1.64 1.65 1.67 1.69 1.66 1.60 1.59 1.60 1.59 1.55 1.53 1.55 1.54 1.55 1.57 1.59 1.59 1.57 1.56 1.59 1.60 1.58 1.51 1.45 1.42 1.42 1.43 1.49 1.48 1.37 1.32 1.37 1.43
1.71 1.70 1.69 1.68 1.67 1.70 1.69 1.71 1.68 1.62 1.57 1.55 1.56 1.58 1.53 1.52 1.51 1.45 1.41 1.41 1.42 1.35 1.33 1.31 1.26 1.24 1.24 1.27 1.29 1.29 1.32 1.36 1.36 1.35 1.35 1.34 1.34 1.38 1.38 1.41 1.43 1.43 1.45 1.46 1.48 1.48 1.51 1.53 1.54 1.57 1.59 1.61 1.62 1.64 1.65 1.66 1.67 1.63 1.59 1.60 1.60 1.59 1.55 1.54 1.53 1.54 1.55 1.56 1.54 1.52 1.52 1.53 1.58 1.59 1.53 1.46 1.41 1.39 1.41 1.49 1.51 1.34 1.31 1.37 1.41
1.74 1.72 1.67 1.67 1.68 1.70 1.70 1.68 1.68 1.64 1.60 1.58 1.61 1.62 1.62 1.60 1.54 1.49 1.43 1.40 1.35 1.37 1.32 1.32 1.22 1.15 1.21 1.23 1.28 1.32 1.31 1.33 1.33 1.34 1.34 1.33 1.34 1.35 1.38 1.38 1.39 1.41 1.45 1.47 1.48 1.49 1.50 1.53 1.54 1.55 1.57 1.60 1.61 1.61 1.61 1.63 1.64 1.62 1.60 1.61 1.60 1.60 1.57 1.55 1.54 1.54 1.55 1.54 1.51 1.47 1.46 1.48 1.52 1.57 1.53 1.46 1.41 1.37 1.40 1.50 1.54 1.35 1.28 1.36 1.34
1.76 1.76 1.72 1.69 1.65 1.67 1.68 1.67 1.68 1.68 1.66 1.65 1.64 1.64 1.62 1.59 1.57 1.51 1.50 1.41 1.33 1.36 1.32 1.31 1.17 1.11 1.09 1.11 1.22 1.28 1.29 1.29 1.28 1.30 1.34 1.36 1.37 1.36 1.37 1.36 1.37 1.42 1.47 1.48 1.50 1.50 1.50 1.52 1.55 1.54 1.58 1.59 1.60 1.61 1.62 1.61 1.62 1.59 1.59 1.61 1.60 1.59 1.59 1.58 1.55 1.55 1.55 1.53 1.47 1.41 1.39 1.41 1.47 1.53 1.52 1.45 1.42 1.38 1.40 1.51 1.54 1.39 1.29 1.35 1.27
1.77 1.78 1.74 1.72 1.68 1.66 1.68 1.70 1.68 1.69 1.64 1.60 1.62 1.61 1.59 1.56 1.57 1.49 1.45 1.46 1.39 1.41 1.39 1.37 1.19 1.24 1.23 1.14 1.07 1.06 1.18 1.24 1.29 1.33 1.33 1.38 1.39 1.36 1.37 1.37 1.39 1.43 1.45 1.45 1.47 1.50 1.51 1.52 1.52 1.54 1.56 1.58 1.60 1.61 1.62 1.62 1.62 1.61 1.63 1.64 1.62 1.60 1.60 1.59 1.55 1.55 1.54 1.52 1.45 1.37 1.36 1.38 1.43 1.48 1.47 1.44 1.42 1.38 1.40 1.51 1.56 1.42 1.32 1.33 1.25
1.77 1.78 1.77 1.74 1.72 1.69 1.69 1.70 1.69 1.70 1.64 1.58 1.59 1.59 1.58 1.54 1.53 1.53 1.50 1.36 1.35 1.33 1.43 1.40 1.35 1.25 1.10 1.09 1.10 1.08 0.97 1.10 1.16 1.30 1.36 1.40 1.37 1.37 1.41 1.41 1.45 1.46 1.47 1.46 1.48 1.51 1.53 1.55 1.52 1.55 1.57 1.59 1.60 1.62 1.61 1.64 1.64 1.65 1.66 1.64 1.62 1.61 1.61 1.60 1.56 1.54 1.52 1.50 1.42 1.37 1.36 1.37 1.39 1.41 1.44 1.43 1.42 1.40 1.42 1.52 1.58 1.48 1.31 1.31 1.24
1.76 1.78 1.76 1.72 1.74 1.73 1.71 1.73 1.71 1.69 1.66 1.61 1.60 1.59 1.58 1.57 1.56 1.54 1.48 1.40 1.33 1.35 1.39 1.45 1.38 1.41 1.28 1.16 1.10 1.09 1.04 1.16 1.13 1.23 1.32 1.34 1.37 1.40 1.41 1.43 1.45 1.46 1.47 1.49 1.54 1.55 1.52 1.52 1.56 1.59 1.61 1.63 1.63 1.62 1.62 1.64 1.67 1.67 1.66 1.66 1.64 1.63 1.62 1.59 1.55 1.52 1.49 1.46 1.40 1.38 1.36 1.35 1.35 1.37 1.42 1.43 1.43 1.41 1.43 1.53 1.59 1.51 1.32 1.30 1.23
1.70 1.74 1.75 1.74 1.71 1.73 1.73 1.72 1.71 1.68 1.67 1.65 1.64 1.61 1.58 1.57 1.62 1.61 1.54 1.51 1.42 1.34 1.29 1.41 1.42 1.43 1.47 1.43 1.35 1.16 1.13 1.24 1.17 1.07 1.32 1.35 1.36 1.40 1.42 1.45 1.47 1.47 1.50 1.50 1.52 1.55 1.57 1.54 1.58 1.59 1.61 1.61 1.62 1.62 1.61 1.64 1.66 1.68 1.69 1.69 1.66 1.63 1.60 1.57 1.53 1.49 1.45 1.43 1.41 1.40 1.38 1.35 1.34 1.38 1.44 1.44 1.44 1.42 1.44 1.53 1.60 1.52 1.33 1.27 1.21
1.67 1.71 1.72 1.74 1.75 1.75 1.75 1.73 1.72 1.69 1.71 1.68 1.63 1.60 1.60 1.62 1.68 1.64 1.58 1.56 1.50 1.33 1.28 1.30 1.38 1.43 1.45 1.47 1.47 1.47 1.43 1.28 1.16 1.20 1.11 1.31 1.36 1.35 1.39 1.46 1.47 1.47 1.48 1.51 1.53 1.54 1.57 1.57 1.56 1.56 1.58 1.61 1.62 1.61 1.62 1.65 1.67 1.67 1.69 1.68 1.66 1.64 1.59 1.55 1.51 1.46 1.43 1.42 1.43 1.39 1.37 1.34 1.33 1.40 1.45 1.46 1.45 1.43 1.45 1.55 1.59 1.52 1.35 1.25 1.20
1.62 1.66 1.68 1.68 1.71 1.73 1.74 1.73 1.70 1.69 1.70 1.68 1.65 1.65 1.63 1.67 1.68 1.65 1.64 1.59 1.54 1.41 1.37 1.38 1.29 1.36 1.46 1.42 1.44 1.47 1.46 1.42 1.38 1.25 1.20 1.11 1.21 1.38 1.43 1.46 1.47 1.48 1.50 1.52 1.53 1.54 1.53 1.56 1.56 1.58 1.61 1.65 1.65 1.64 1.64 1.66 1.69 1.71 1.71 1.67 1.66 1.63 1.59 1.53 1.49 1.44 1.42 1.42 1.42 1.38 1.34 1.32 1.34 1.43 1.47 1.47 1.45 1.45 1.46 1.55 1.58 1.55 1.41 1.24 1.19
1.60 1.60 1.63 1.63 1.65 1.67 1.68 1.67 1.67 1.65 1.67 1.69 1.69 1.68 1.64 1.61 1.62 1.62 1.60 1.61 1.60 1.56 1.49 1.44 1.44 1.42 1.42 1.43 1.45 1.43 1.45 1.45 1.44 1.42 1.26 1.15 1.17 1.21 1.27 1.42 1.47 1.49 1.52 1.54 1.55 1.55 1.54 1.55 1.57 1.60 1.65 1.67 1.69 1.68 1.68 1.69 1.70 1.72 1.68 1.65 1.64 1.62 1.57 1.51 1.46 1.43 1.42 1.39 1.38 1.35 1.33 1.33 1.37 1.44 1.48 1.48 1.49 1.48 1.47 1.54 1.56 1.56 1.48 1.25 1.18
1.56 1.59 1.60 1.63 1.65 1.69 1.67 1.64 1.64 1.63 1.63 1.67 1.68 1.67 1.66 1.64 1.65 1.64 1.65 1.61 1.65 1.64 1.57 1.55 1.54 1.54 1.51 1.48 1.41 1.43 1.41 1.39 1.39 1.37 1.36 1.32 1.15 1.17 1.24 1.22 1.20 1.36 1.48 1.49 1.54 1.56 1.59 1.60 1.61 1.65 1.68 1.70 1.72 1.73 1.71 1.70 1.70 1.68 1.67 1.64 1.63 1.60 1.56 1.49 1.46 1.43 1.41 1.38 1.37 1.35 1.36 1.37 1.40 1.46 1.51 1.53 1.52 1.49 1.47 1.52 1.54 1.56 1.53 1.32 1.18
1.54 1.57 1.59 1.62 1.67 1.70 1.69 1.67 1.66 1.65 1.61 1.62 1.62 1.64 1.65 1.64 1.67 1.69 1.67 1.62 1.62 1.63 1.62 1.63 1.60 1.56 1.54 1.50 1.45 1.39 1.34 1.30 1.33 1.35 1.29 1.24 1.21 1.21 1.23 1.28 1.26 1.27 1.45 1.54 1.59 1.62 1.66 1.67 1.67 1.70 1.71 1.72 1.74 1.72 1.69 1.70 1.69 1.67 1.69 1.63 1.61 1.58 1.53 1.50 1.46 1.44 1.41 1.38 1.37 1.37 1.38 1.40 1.42 1.48 1.52 1.54 1.53 1.49 1.48 1.51 1.53 1.57 1.58 1.40 1.19
1.53 1.54 1.57 1.64 1.69 1.69 1.70 1.67 1.65 1.65 1.64 1.66 1.65 1.64 1.66 1.67 1.66 1.66 1.64 1.64 1.63 1.59 1.58 1.57 1.59 1.59 1.56 1.55 1.51 1.48 1.44 1.40 1.41 1.40 1.33 1.29 1.24 1.20 1.22 1.29 1.35 1.39 1.50 1.58 1.67 1.67 1.68 1.68 1.71 1.71 1.71 1.71 1.70 1.69 1.70 1.70 1.69 1.64 1.66 1.60 1.56 1.53 1.50 1.48 1.47 1.46 1.43 1.39 1.37 1.39 1.42 1.44 1.45 1.48 1.51 1.53 1.52 1.48 1.49 1.52 1.54 1.60 1.61 1.46 1.22
1.48 1.49 1.55 1.62 1.66 1.66 1.66 1.63 1.61 1.63 1.67 1.69 1.70 1.70 1.72 1.71 1.69 1.66 1.66 1.62 1.60 1.57 1.54 1.54 1.57 1.56 1.56 1.61 1.57 1.52 1.49 1.50 1.47 1.43 1.42 1.39 1.33 1.21 1.30 1.37 1.29 1.40 1.54 1.56 1.56 1.67 1.68 1.68 1.69 1.70 1.69 1.68 1.66 1.67 1.67 1.67 1.65 1.61 1.60 1.58 1.51 1.49 1.47 1.45 1.44 1.43 1.39 1.36 1.37 1.41 1.45 1.46 1.46 1.47 1.49 1.52 1.52 1.51 1.52 1.54 1.57 1.62 1.63 1.50 1.28
1.48 1.50 1.60 1.68 1.68 1.69 1.69 1.67 1.68 1.67 1.67 1.69 1.72 1.74 1.73 1.71 1.70 1.66 1.64 1.67 1.63 1.56 1.53 1.54 1.55 1.58 1.60 1.55 1.55 1.53 1.53 1.55 1.51 1.46 1.44 1.39 1.34 1.29 1.29 1.36 1.38 1.36 1.50 1.52 1.59 1.48 1.58 1.65 1.69 1.71 1.71 1.70 1.67 1.65 1.65 1.65 1.63 1.59 1.56 1.55 1.49 1.45 1.44 1.42 1.40 1.37 1.34 1.32 1.35 1.41 1.44 1.46 1.46 1.46 1.48 1.52 1.57 1.57 1.56 1.56 1.59 1.65 1.65 1.54 1.36
1.56 1.60 1.65 1.68 1.71 1.73 1.72 1.70 1.69 1.67 1.67 1.67 1.69 1.72 1.76 1.74 1.72 1.71 1.70 1.67 1.62 1.58 1.54 1.52 1.50 1.52 1.55 1.54 1.51 1.52 1.54 1.57 1.53 1.50 1.51 1.47 1.42 1.39 1.33 1.22 1.28 1.37 1.37 1.44 1.46 1.45 1.45 1.61 1.68 1.70 1.72 1.71 1.68 1.65 1.63 1.64 1.59 1.56 1.52 1.52 1.48 1.43 1.41 1.40 1.37 1.34 1.31 1.31 1.37 1.43 1.46 1.48 1.48 1.48 1.51 1.57 1.60 1.59 1.57 1.59 1.60 1.67 1.67 1.57 1.43
1.69 1.69 1.69 1.71 1.72 1.73 1.74 1.73 1.74 1.71 1.69 1.68 1.68 1.69 1.73 1.72 1.72 1.71 1.68 1.72 1.65 1.60 1.60 1.58 1.56 1.55 1.52 1.54 1.49 1.50 1.54 1.54 1.54 1.54 1.54 1.55 1.51 1.49 1.44 1.36 1.21 1.15 1.29 1.28 1.33 1.40 1.54 1.50 1.64 1.72 1.72 1.69 1.68 1.64 1.61 1.62 1.57 1.54 1.51 1.49 1.46 1.44 1.36 1.34 1.32 1.30 1.30 1.34 1.42 1.47 1.50 1.51 1.52 1.52 1.55 1.59 1.60 1.60 1.60 1.62 1.63 1.66 1.68 1.59 1.48
1.72 1.76 1.75 1.77 1.78 1.77 1.75 1.75 1.75 1.74 1.72 1.71 1.71 1.71 1.72 1.71 1.69 1.67 1.63 1.70 1.68 1.65 1.68 1.63 1.59 1.57 1.56 1.56 1.52 1.50 1.52 1.56 1.53 1.54 1.57 1.58 1.58 1.56 1.53 1.41 1.37 1.20 1.14 1.13 1.27 1.29 1.49 1.55 1.46 1.67 1.72 1.73 1.65 1.62 1.56 1.56 1.52 1.50 1.48 1.45 1.40 1.36 1.28 1.27 1.26 1.28 1.32 1.41 1.49 1.52 1.55 1.55 1.56 1.56 1.55 1.58 1.60 1.60 1.62 1.63 1.67 1.67 1.67 1.61 1.53
1.74 1.76 1.76 1.77 1.79 1.81 1.78 1.77 1.77 1.76 1.72 1.72 1.72 1.72 1.70 1.66 1.66 1.63 1.61 1.62 1.58 1.61 1.64 1.63 1.60 1.60 1.59 1.60 1.60 1.53 1.58 1.55 1.53 1.55 1.56 1.56 1.57 1.60 1.60 1.59 1.54 1.33 1.28 1.13 1.19 1.39 1.40 1.57 1.62 1.59 1.70 1.66 1.62 1.54 1.52 1.50 1.44 1.42 1.43 1.38 1.33 1.28 1.27 1.28 1.29 1.33 1.40 1.49 1.55 1.57 1.60 1.60 1.61 1.60 1.57 1.58 1.60 1.61 1.63 1.66 1.70 1.69 1.67 1.64 1.56
1.72 1.71 1.71 1.72 1.75 1.78 1.81 1.79 1.80 1.76 1.74 1.72 1.74 1.71 1.68 1.62 1.62 1.59 1.60 1.60 1.55 1.53 1.57 1.56 1.55 1.54 1.53 1.51 1.55 1.52 1.56 1.56 1.57 1.56 1.57 1.57 1.58 1.60 1.58 1.56 1.50 1.45 1.36 1.31 1.12 1.44 1.51 1.45 1.60 1.71 1.66 1.64 1.58 1.47 1.47 1.48 1.40 1.34 1.34 1.32 1.28 1.26 1.31 1.37 1.38 1.41 1.48 1.55 1.59 1.61 1.63 1.65 1.64 1.65 1.61 1.59 1.62 1.63 1.67 1.68 1.72 1.71 1.69 1.67 1.61
1.72 1.74 1.73 1.73 1.74 1.75 1.79 1.79 1.77 1.76 1.76 1.77 1.77 1.75 1.71 1.65 1.64 1.62 1.64 1.62 1.58 1.56 1.57 1.61 1.59 1.57 1.55 1.51 1.54 1.53 1.56 1.56 1.56 1.56 1.56 1.57 1.59 1.56 1.54 1.49 1.45 1.43 1.39 1.30 1.20 1.26 1.59 1.58 1.62 1.67 1.70 1.60 1.58 1.41 1.39 1.40 1.41 1.33 1.32 1.34 1.30 1.32 1.39 1.47 1.45 1.47 1.52 1.57 1.61 1.64 1.66 1.66 1.66 1.68 1.67 1.62 1.62 1.65 1.69 1.71 1.71 1.72 1.71 1.71 1.69
1.73 1.73 1.74 1.76 1.79 1.80 1.80 1.80 1.77 1.76 1.75 1.75 1.78 1.78 1.74 1.68 1.70 1.70 1.70 1.68 1.62 1.63 1.63 1.61 1.65 1.65 1.63 1.59 1.58 1.59 1.61 1.54 1.56 1.56 1.55 1.58 1.60 1.57 1.55 1.50 1.43 1.46 1.39 1.29 1.21 1.29 1.56 1.74 1.66 1.63 1.66 1.60 1.48 1.41 1.31 1.28 1.29 1.33 1.40 1.41 1.35 1.35 1.43 1.48 1.53 1.52 1.54 1.59 1.64 1.67 1.69 1.69 1.68 1.69 1.69 1.65 1.64 1.65 1.69 1.71 1.70 1.72 1.72 1.73 1.73
1.75 1.74 1.75 1.77 1.79 1.81 1.81 1.82 1.82 1.82 1.81 1.80 1.80 1.78 1.72 1.70 1.71 1.75 1.70 1.68 1.65 1.63 1.64 1.59 1.62 1.67 1.68 1.63 1.62 1.62 1.64 1.55 1.53 1.52 1.56 1.59 1.59 1.57 1.56 1.49 1.44 1.47 1.57 1.42 1.41 1.39 1.37 1.59 1.63 1.72 1.63 1.63 1.39 1.43 1.26 1.21 1.23 1.32 1.35 1.36 1.32 1.37 1.43 1.50 1.56 1.58 1.58 1.63 1.67 1.69 1.71 1.72 1.71 1.70 1.70 1.68 1.65 1.67 1.69 1.70 1.70 1.71 1.74 1.74 1.76
1.75 1.74 1.75 1.77 1.79 1.81 1.81 1.81 1.81 1.80 1.81 1.80 1.81 1.77 1.73 1.71 1.68 1.70 1.73 1.72 1.68 1.65 1.62 1.61 1.59 1.61 1.59 1.58 1.59 1.63 1.64 1.57 1.56 1.55 1.57 1.55 1.57 1.53 1.50 1.53 1.50 1.54 1.65 1.66 1.56 1.45 1.41 1.46 1.62 1.58 1.59 1.56 1.38 1.27 1.29 1.28 1.29 1.33 1.32 1.29 1.24 1.32 1.44 1.52 1.57 1.63 1.61 1.66 1.69 1.72 1.73 1.73 1.71 1.69 1.70 1.70 1.67 1.67 1.70 1.72 1.71 1.71 1.74 1.77 1.79
1.69 1.72 1.75 1.76 1.77 1.78 1.76 1.77 1.79 1.78 1.78 1.77 1.77 1.77 1.76 1.75 1.75 1.76 1.78 1.77 1.76 1.74 1.70 1.67 1.67 1.66 1.64 1.64 1.65 1.68 1.68 1.60 1.58 1.57 1.58 1.59 1.57 1.56 1.54 1.57 1.56 1.57 1.65 1.65 1.63 1.51 1.48 1.40 1.55 1.50 1.53 1.43 1.40 1.34 1.31 1.31 1.30 1.31 1.30 1.27 1.25 1.30 1.42 1.52 1.56 1.63 1.64 1.67 1.71 1.73 1.73 1.72 1.69 1.67 1.67 1.68 1.68 1.68 1.70 1.72 1.73 1.73 1.74 1.77 1.79
1.68 1.70 1.72 1.75 1.74 1.74 1.71 1.72 1.73 1.73 1.74 1.75 1.74 1.75 1.76 1.79 1.79 1.79 1.80 1.81 1.79 1.78 1.77 1.75 1.74 1.71 1.68 1.66 1.69 1.70 1.68 1.58 1.57 1.55 1.57 1.56 1.60 1.60 1.58 1.63 1.62 1.65 1.69 1.68 1.64 1.61 1.53 1.46 1.48 1.55 1.54 1.49 1.42 1.30 1.30 1.21 1.26 1.33 1.36 1.19 1.17 1.27 1.44 1.50 1.54 1.62 1.63 1.60 1.65 1.70 1.71 1.69 1.67 1.66 1.65 1.66 1.68 1.71 1.72 1.73 1.75 1.75 1.76 1.77 1.79
1.66 1.69 1.70 1.74 1.74 1.73 1.74 1.74 1.73 1.72 1.72 1.71 1.70 1.70 1.71 1.74 1.75 1.75 1.75 1.76 1.77 1.77 1.77 1.77 1.76 1.75 1.71 1.69 1.71 1.72 1.68 1.61 1.58 1.59 1.60 1.55 1.56 1.55 1.57 1.61 1.66 1.71 1.72 1.73 1.70 1.65 1.61 1.56 1.50 1.44 1.51 1.37 1.27 1.22 1.26 1.27 1.20 1.19 1.20 1.19 1.15 1.28 1.40 1.46 1.52 1.57 1.57 1.49 1.47 1.56 1.62 1.64 1.62 1.60 1.61 1.62 1.66 1.71 1.76 1.79 1.79 1.78 1.78 1.78 1.80
1.62 1.66 1.70 1.72 1.76 1.75 1.76 1.76 1.73 1.72 1.71 1.70 1.69 1.68 1.67 1.68 1.67 1.66 1.65 1.67 1.69 1.70 1.71 1.72 1.72 1.73 1.73 1.74 1.75 1.76 1.73 1.71 1.68 1.68 1.70 1.70 1.67 1.65 1.68 1.69 1.70 1.65 1.61 1.65 1.69 1.68 1.65 1.57 1.55 1.53 1.45 1.44 1.29 1.15 1.29 1.32 1.29 1.24 1.14 1.10 1.07 1.22 1.36 1.44 1.47 1.59 1.62 1.58 1.55 1.52 1.51 1.53 1.59 1.57 1.54 1.51 1.54 1.63 1.71 1.77 1.83 1.84 1.83 1.82 1.83
1.58 1.61 1.65 1.67 1.71 1.72 1.72 1.73 1.74 1.73 1.71 1.69 1.69 1.68 1.66 1.65 1.64 1.62 1.62 1.60 1.59 1.61 1.63 1.64 1.65 1.64 1.65 1.65 1.66 1.70 1.72 1.74 1.75 1.77 1.78 1.75 1.77 1.73 1.77 1.76 1.74 1.70 1.67 1.69 1.71 1.69 1.64 1.61 1.56 1.53 1.52 1.44 1.43 1.43 1.41 1.35 1.33 1.40 1.36 1.21 1.08 1.09 1.21 1.38 1.46 1.48 1.58 1.57 1.44 1.48 1.53 1.58 1.69 1.70 1.60 1.51 1.47 1.46 1.51 1.55 1.61 1.71 1.80 1.85 1.87
1.58 1.60 1.62 1.62 1.62 1.64 1.68 1.69 1.70 1.71 1.68 1.67 1.69 1.67 1.65 1.65 1.65 1.62 1.62 1.61 1.59 1.57 1.57 1.58 1.60 1.61 1.63 1.64 1.64 1.63 1.65 1.67 1.72 1.75 1.78 1.81 1.76 1.69 1.73 1.74 1.73 1.72 1.70 1.71 1.73 1.71 1.69 1.65 1.62 1.64 1.56 1.53 1.55 1.50 1.43 1.38 1.34 1.32 1.39 1.37 1.24 1.20 1.21 1.32 1.42 1.52 1.53 1.51 1.40 1.37 1.39 1.42 1.47 1.59 1.57 1.45 1.42 1.40 1.36 1.33 1.34 1.42 1.58 1.75 1.86
1.61 1.63 1.63 1.63 1.60 1.59 1.60 1.63 1.64 1.63 1.61 1.64 1.65 1.65 1.64 1.63 1.63 1.62 1.62 1.62 1.61 1.60 1.59 1.58 1.59 1.63 1.64 1.67 1.70 1.71 1.69 1.68 1.68 1.69 1.71 1.76 1.81 1.80 1.78 1.82 1.80 1.74 1.71 1.68 1.67 1.69 1.63 1.61 1.59 1.59 1.55 1.57 1.64 1.64 1.51 1.49 1.51 1.52 1.46 1.42 1.29 1.24 1.20 1.26 1.38 1.46 1.56 1.59 1.47 1.30 1.33 1.45 1.46 1.51 1.50 1.30 1.31 1.30 1.18 1.14 1.17 1.25 1.39 1.53 1.64
1.66 1.67 1.66 1.62 1.60 1.59 1.56 1.55 1.54 1.56 1.60 1.61 1.59 1.59 1.60 1.62 1.62 1.62 1.61 1.61 1.63 1.63 1.63 1.62 1.60 1.62 1.67 1.72 1.75 1.79 1.82 1.83 1.85 1.84 1.83 1.81 1.83 1.86 1.91 1.95 1.96 1.86 1.71 1.64 1.62 1.64 1.61 1.60 1.63 1.62 1.57 1.58 1.67 1.71 1.62 1.58 1.58 1.51 1.46 1.46 1.40 1.32 1.20 1.11 1.20 1.46 1.63 1.63 1.55 1.38 1.29 1.45 1.49 1.39 1.40 1.27 1.25 1.21 1.13 1.08 1.12 1.15 1.18 1.21 1.25
1.68 1.67 1.64 1.64 1.64 1.64 1.61 1.60 1.58 1.60 1.59 1.60 1.61 1.61 1.61 1.61 1.62 1.64 1.67 1.67 1.68 1.67 1.68 1.67 1.68 1.70 1.73 1.78 1.84 1.89 1.91 1.92 1.95 1.97 1.97 1.95 1.89 1.90 1.93 1.94 1.93 1.92 1.92 1.83 1.72 1.64 1.64 1.59 1.58 1.59 1.60 1.63 1.68 1.72 1.70 1.69 1.66 1.60 1.56 1.50 1.45 1.36 1.27 1.23 1.30 1.32 1.51 1.64 1.55 1.35 1.22 1.37 1.48 1.41 1.34 1.26 1.21 1.16 1.11 1.09 1.09 1.08 1.07 1.06 1.08
1.69 1.67 1.72 1.74 1.68 1.67 1.64 1.62 1.62 1.64 1.64 1.66 1.66 1.65 1.63 1.61 1.60 1.60 1.61 1.65 1.67 1.69 1.71 1.71 1.71 1.73 1.78 1.80 1.83 1.90 1.96 1.99 2.02 2.09 2.11 2.10 2.15 2.08 1.95 1.93 1.89 1.87 1.85 1.87 1.91 1.87 1.85 1.74 1.63 1.59 1.64 1.69 1.67 1.73 1.79 1.78 1.77 1.59 1.54 1.48 1.47 1.42 1.40 1.32 1.40 1.49 1.56 1.70 1.64 1.36 1.16 1.22 1.35 1.31 1.24 1.23 1.17 1.15 1.11 1.09 1.07 1.05 1.04 1.02 1.01
1.68 1.66 1.76 1.85 1.75 1.71 1.75 1.75 1.74 1.71 1.66 1.65 1.63 1.61 1.60 1.60 1.59 1.58 1.58 1.58 1.60 1.63 1.66 1.68 1.71 1.74 1.79 1.80 1.79 1.78 1.84 1.91 1.94 1.88 1.87 1.91 1.95 2.03 2.07 2.00 1.92 1.92 1.92 1.87 1.84 1.87 1.91 1.84 1.77 1.68 1.81 1.84 1.77 1.84 1.90 1.87 1.70 1.56 1.49 1.46 1.51 1.45 1.43 1.46 1.57 1.61 1.71 1.76 1.58 1.40 1.20 1.21 1.31 1.29 1.22 1.20 1.18 1.10 1.07 1.05 1.02 1.00 0.98 0.96 0.96
1.75 1.76 1.80 1.80 1.80 1.81 1.83 1.84 1.81 1.77 1.76 1.75 1.71 1.68 1.67 1.66 1.67 1.66 1.66 1.63 1.62 1.63 1.67 1.71 1.75 1.79 1.83 1.87 1.89 1.89 1.93 1.98 2.02 2.01 1.99 1.95 1.97 1.99 1.99 1.98 2.02 2.01 1.97 1.93 1.92 1.88 1.86 1.84 1.81 1.84 1.90 1.96 1.96 1.98 1.96 1.85 1.70 1.63 1.60 1.56 1.57 1.56 1.55 1.67 1.70 1.77 1.76 1.75 1.64 1.45 1.16 1.19 1.31 1.23 1.22 1.20 1.20 1.14 1.08 1.03 1.02 0.98 0.96 0.96 0.96
1.88 1.82 1.84 1.86 1.85 1.86 1.91 1.93 1.89 1.82 1.81 1.81 1.80 1.80 1.80 1.81 1.82 1.80 1.74 1.67 1.64 1.65 1.67 1.71 1.75 1.80 1.85 1.88 1.91 1.94 1.99 2.02 2.04 2.06 2.05 2.04 2.00 1.94 1.91 1.97 2.03 2.08 2.03 2.02 1.97 1.93 1.90 1.92 1.94 1.96 2.01 2.01 1.97 1.96 1.89 1.78 1.68 1.65 1.63 1.64 1.64 1.60 1.56 1.52 1.54 1.66 1.60 1.70 1.63 1.45 1.23 1.17 1.27 1.24 1.19 1.22 1.22 1.16 1.17 1.11 1.04 1.00 0.97 0.96 0.96
1.86 1.83 1.86 1.90 1.92 1.92 1.92 1.95 1.94 1.90 1.89 1.90 1.92 1.93 1.94 1.95 1.97 1.95 1.89 1.81 1.76 1.73 1.74 1.78 1.82 1.86 1.91 1.96 1.97 1.98 1.99 2.01 2.06 2.06 2.06 2.06 2.02 1.96 1.94 1.93 1.99 2.07 2.05 2.04 2.01 1.96 1.92 1.93 1.94 1.97 1.98 1.93 1.87 1.76 1.69 1.69 1.69 1.69 1.61 1.51 1.50 1.58 1.49 1.41 1.46 1.50 1.50 1.57 1.59 1.51 1.29 1.14 1.18 1.24 1.20 1.17 1.15 1.10 1.11 1.12 1.08 1.01 0.98 0.96 0.95
1.90 1.91 1.95 1.99 2.01 2.01 2.00 1.98 1.99 1.94 1.93 1.95 1.96 1.98 1.99 2.00 2.00 1.98 1.96 1.92 1.86 1.83 1.80 1.82 1.85 1.88 1.93 1.95 1.97 1.97 1.97 2.01 2.05 2.03 2.03 2.02 1.98 1.98 1.96 1.97 1.97 2.02 2.11 2.11 2.07 1.98 1.94 1.90 1.86 1.84 1.86 1.89 1.87 1.78 1.71 1.69 1.68 1.69 1.62 1.48 1.56 1.55 1.45 1.43 1.37 1.43 1.46 1.50 1.51 1.54 1.26 1.09 1.14 1.14 1.19 1.20 1.11 1.08 1.03 1.02 1.03 1.02 1.00 0.93 0.87
1.90 1.93 1.94 1.94 1.96 1.99 2.00 1.99 1.97 1.93 1.91 1.91 1.93 1.96 1.98 1.99 2.02 2.05 2.02 1.96 1.89 1.86 1.84 1.83 1.87 1.89 1.91 1.93 1.91 1.91 1.94 1.97 2.00 2.00 2.02 2.02 2.00 2.01 2.02 2.01 2.00 2.01 2.12 2.14 2.10 2.02 1.93 1.86 1.83 1.82 1.85 1.89 1.95 1.91 1.86 1.78 1.72 1.69 1.69 1.67 1.66 1.57 1.50 1.47 1.43 1.42 1.33 1.39 1.47 1.51 1.19 1.03 1.01 1.03 1.04 1.03 1.01 1.01 1.00 0.91 0.92 0.94 0.94 0.93 0.87
Wind_Speed
14 14 13 13 13 13 13 13 13 12 12 12 12 11 11 10 10 11 11 11 11 11 11 11 11 11 11 11 11 11 11 12 12 12 12 12 12 12 11 11 10 10 9 9 8 8 8 8 8 8 9 9 9 10 10 11 11 12 12 13 13 13 13 13 14 14 14 14 15 15 15 15 15 15 15 15 15 15 15 15 15 16 16 16 16
14 13 13 12 12 12 12 12 12 12 11 11 11 11 10 10 11 11 11 11 11 11 11 11 10 10 10 10 10 11 11 12 12 12 12 12 11 11 11 10 9 9 8 8 8 7 7 7 8 8 8 9 9 10 10 11 11 12 12 13 13 13 13 14 14 14 14 15 15 15 15 15 15 16 16 16 16 16 16 17 17 17 17 17 17
13 12 12 12 12 12 12 12 12 11 11 11 10 10 10 10 10 10 10 10 10 10 10 10 10 10 10 10 10 10 11 11 11 11 11 11 10 10 10 9 9 8 8 8 7 7 7 7 7 8 8 9 9 10 10 11 11 12 12 13 13 13 13 14 14 14 15 15 15 15 15 16 16 16 17 17 17 17 18 18 18 18 18 18 18
12 12 12 12 12 11 12 12 11 11 10 10 10 10 10 10 10 10 9 10 10 10 10 10 9 9 9 9 9 9 10 10 10 10 10 10 9 9 8 8 8 7 7 7 7 7 7 7 7 7 8 8 9 10 10 11 11 12 12 13 13 13 14 14 14 15 15 16 16 16 16 16 17 17 17 18 18 18 19 19 19 19 19 19 19
11 11 11 11 11 11 11 11 11 11 10 10 9 9 9 9 9 9 9 9 9 10 10 9 9 9 9 9 9 9 9 9 9 9 9 8 8 8 7 7 7 7 6 6 6 6 6 6 7 7 8 9 9 10 11 11 11 12 12 13 13 14 14 14 14 15 16 16 16 16 17 17 18 18 18 19 19 19 20 20 20 20 20 20 20
10 10 11 11 11 11 10 10 10 10 10 9 9 9 9 9 8 8 9 9 9 9 9 9 8 8 8 8 8 8 8 8 8 8 7 7 7 7 6 6 6 6 6 6 5 5 6 6 7 7 8 9 9 10 11 11 11 12 13 13 14 14 14 14 14 15 16 16 16 17 17 18 18 19 19 20 20 20 21 21 21 21 21 21 21
10 10 10 10 10 10 10 10 10 10 9 8 8 8 8 8 8 8 8 8 8 8 8 8 8 7 7 7 7 7 7 7 7 6 6 6 5 5 5 5 5 5 5 5 5 5 6 6 7 7 8 9 9 10 11 11 12 12 13 13 14 14 14 14 14 15 16 16 17 17 17 18 19 19 20 20 21 22 22 22 22 22 22 22 21
9 10 10 10 10 10 10 9 9 9 8 8 8 8 7 7 7 7 8 8 7 8 7 7 7 7 7 7 7 7 7 6 6 5 5 5 4 4 4 4 4 5 5 5 5 5 6 6 7 8 8 9 10 10 11 11 12 12 13 13 14 14 14 14 14 15 16 17 17 17 17 18 19 19 20 21 21 22 23 23 23 23 22 22 21
9 9 9 9 9 9 9 9 9 9 8 8 7 7 7 7 7 7 7 7 7 7 7 7 6 6 6 6 6 6 6 6 5 5 4 4 4 3 3 3 4 4 4 5 5 5 6 7 7 8 8 9 10 11 11 12 12 12 13 14 14 14 14 14 14 15 16 17 17 17 17 18 19 19 20 21 22 23 24 24 24 23 22 22 22
9 9 9 9 9 9 8 8 8 8 8 7 7 6 6 6 6 6 6 6 6 6 6 6 5 5 5 6 6 6 6 5 5 4 3 3 3 2 2 3 3 4 4 5 5 6 6 7 7 8 8 9 10 11 12 12 12 12 13 14 14 14 14 14 15 16 16 17 17 17 17 18 18 19 20 21 21 23 24 25 24 23 23 23 22
9 9 9 9 9 8 8 8 8 8 7 7 6 6 6 6 6 6 6 6 6 5 5 5 5 4 5 5 5 5 5 4 4 3 3 2 2 2 2 2 3 3 4 5 6 6 6 7 7 8 9 9 10 11 12 12 13 13 13 13 14 14 14 14 15 16 17 17 17 17 17 18 18 19 20 20 21 22 24 25 24 24 23 23 22
8 8 8 8 8 8 8 7 7 7 7 6 6 5 5 5 5 5 5 5 5 5 4 4 4 4 4 4 4 4 3 3 3 2 2 2 1 1 2 2 3 4 4 5 6 6 6 7 7 8 9 9 10 11 12 12 13 13 13 13 13 14 14 15 16 16 17 17 18 17 18 18 18 19 19 20 21 22 23 24 25 24 23 23 22
8 8 8 7 7 7 7 7 6 6 6 6 5 5 5 5 5 5 5 5 5 5 4 4 3 3 3 3 3 3 2 2 2 1 1 1 1 1 2 3 3 4 5 5 6 7 7 7 7 8 9 9 10 11 12 12 13 13 13 13 13 14 14 15 16 16 17 17 18 18 18 18 19 19 19 20 21 22 23 24 24 24 23 23 22
7 7 7 7 7 7 6 6 6 6 5 5 5 5 5 5 5 5 4 4 4 4 4 4 4 3 3 3 2 2 2 1 1 1 1 1 2 2 2 3 3 4 5 6 6 7 7 7 8 8 9 10 10 11 12 12 12 12 12 13 13 14 14 15 16 16 17 18 18 18 18 18 19 19 18 19 20 21 22 23 24 24 23 22 23
7 7 7 7 7 6 6 6 6 5 5 5 5 5 5 5 5 4 4 3 4 4 3 3 3 3 3 2 2 1 1 1 0 1 1 2 2 2 2 3 4 5 5 6 7 7 7 7 8 9 9 10 10 11 11 11 11 11 12 12 13 13 14 15 16 17 17 18 18 19 18 18 19 18 18 19 20 21 22 22 23 24 23 22 23
7 7 7 7 7 6 6 6 6 5 5 5 5 5 5 4 4 4 3 3 3 3 3 3 2 2 2 2 2 1 1 0 1 1 1 2 2 2 3 3 4 5 6 6 7 8 7 7 8 9 9 10 10 11 11 11 11 11 12 12 13 13 14 15 16 17 17 18 18 19 18 19 19 18 18 18 20 20 21 22 22 23 23 22 22
7 7 6 6 6 6 6 6 5 5 5 5 5 4 4 4 4 3 3 2 2 3 3 2 2 2 2 1 1 1 1 1 1 1 1 2 2 3 3 4 4 5 6 6 7 8 8 8 8 9 9 10 10 11 11 10 11 11 11 12 13 14 14 15 16 16 17 18 18 18 18 19 19 18 18 18 19 20 20 21 22 22 22 21 22
6 6 6 6 6 6 6 5 5 5 5 5 4 4 4 4 3 3 2 2 2 2 3 2 2 2 1 1 1 0 0 1 1 1 2 2 3 3 4 4 5 5 5 6 7 7 7 8 8 9 9 10 10 10 10 10 11 11 11 12 13 14 14 15 15 16 17 17 17 18 18 18 18 18 18 18 19 19 19 21 21 22 22 21 21
6 6 6 6 6 5 5 5 5 5 5 5 4 4 4 3 3 2 2 2 2 2 2 2 2 1 1 0 0 1 1 1 1 2 2 2 3 3 4 5 5 5 5 6 6 7 7 8 8 8 9 9 10 10 10 10 10 11 11 12 13 13 14 14 15 15 16 17 17 17 18 18 18 18 18 18 18 18 19 20 20 21 21 21 21
6 6 6 5 5 5 5 4 4 4 4 4 4 4 3 3 3 2 2 2 2 2 2 2 1 1 0 0 0 0 1 1 1 2 2 3 3 3 4 5 5 5 5 6 6 7 7 7 8 8 8 9 9 9 9 9 10 11 11 12 13 13 14 14 15 15 16 16 17 17 17 18 18 18 18 18 18 17 18 19 20 20 21 20 20
6 5 5 5 5 5 4 4 4 4 4 4 4 4 3 3 3 3 3 2 2 2 2 1 1 1 0 0 1 1 1 1 2 2 3 3 4 4 5 6 5 5 6 6 7 7 7 7 7 8 8 9 9 9 9 10 10 11 11 12 13 13 14 14 15 15 15 16 16 17 17 17 17 17 17 18 17 17 17 18 19 19 20 20 20
5 5 5 5 5 4 4 4 4 4 4 4 4 3 3 4 3 3 3 3 3 2 2 2 1 1 1 1 1 2 2 2 2 3 3 4 4 5 5 6 6 6 6 7 7 7 7 7 7 8 8 9 9 9 9 10 10 11 11 12 13 13 14 14 15 15 15 16 16 16 16 16 17 17 17 17 17 17 17 17 17 18 19 19 19
5 5 5 5 4 4 4 4 4 4 4 4 3 3 3 3 3 3 3 3 3 3 3 3 2 2 2 2 2 2 2 3 3 3 4 4 4 5 5 6 6 6 6 7 7 7 7 7 7 8 8 9 9 9 9 9 10 11 11 12 13 13 14 14 14 15 15 16 16 16 16 16 16 17 17 17 17 16 16 16 16 17 18 19 18
5 5 5 5 5 4 4 4 4 3 4 3 3 3 3 3 3 3 3 3 3 3 3 3 3 3 3 3 3 3 3 3 4 4 4 4 5 5 5 5 6 6 6 7 6 6 7 7 7 8 8 9 9 9 9 9 10 11 11 11 12 13 13 14 14 15 15 16 16 16 16 16 16 16 17 17 16 15 15 15 15 16 17 18 17
6 6 6 5 5 5 4 4 4 4 4 3 3 3 3 3 3 3 3 3 3 3 3 3 3 3 3 3 3 4 4 4 4 4 4 4 5 5 5 5 6 6 6 6 6 6 6 7 7 7 8 8 9 9 9 9 9 11 10 10 12 12 13 14 14 15 15 16 16 16 16 16 16 16 16 16 15 15 14 13 14 15 16 17 17
6 6 6 6 5 5 5 5 4 4 4 4 4 3 3 3 3 3 3 3 3 3 3 3 3 3 4 4 4 4 4 4 5 5 5 5 5 5 5 6 5 6 6 6 6 6 6 6 6 7 8 8 9 9 9 9 9 10 10 10 11 12 13 14 14 15 15 16 16 16 16 16 16 16 15 15 14 14 13 13 13 14 15 16 16
6 6 6 6 6 5 5 5 5 5 5 5 4 4 4 4 4 4 4 4 4 4 4 4 4 4 4 4 4 4 4 5 5 5 5 5 5 5 5 5 5 5 5 6 6 5 6 6 6 7 8 8 9 9 8 8 9 9 10 11 12 13 14 14 15 15 15 15 16 16 16 16 16 15 15 14 14 13 12 12 13 13 14 15 15
6 6 6 6 6 6 6 6 5 5 5 5 5 5 5 5 5 5 5 5 4 4 5 5 5 5 5 5 5 5 5 5 5 5 5 5 5 5 5 5 5 5 6 6 6 6 6 6 6 7 8 8 8 8 8 8 9 10 10 11 12 13 14 15 15 15 15 15 15 16 16 15 15 15 14 14 13 12 12 12 12 12 13 14 14
7 6 6 6 6 6 6 6 6 6 6 6 6 6 6 6 6 6 6 6 5 6 5 5 5 5 5 5 5 6 6 6 6 6 5 5 5 5 5 5 5 6 6 6 6 6 6 6 6 7 8 8 8 8 8 8 9 10 11 12 12 13 14 15 15 15 15 15 15 15 15 15 15 14 14 13 12 12 12 12 12 11 12 13 13
8 7 7 7 7 7 7 6 6 6 6 6 6 6 6 6 6 6 6 6 6 6 6 6 6 6 6 6 6 6 6 6 6 6 6 6 6 6 6 6 6 6 6 6 7 7 7 7 6 7 8 8 8 8 8 9 10 11 11 12 13 13 14 14 14 15 15 15 15 14 14 14 14 14 14 13 12 12 11 12 11 11 11 12 13
8 8 8 8 8 7 7 7 7 7 7 7 7 7 7 6 6 6 6 6 6 6 6 6 6 6 6 7 6 7 7 7 7 6 6 6 6 7 7 7 6 7 7 7 7 7 7 7 7 7 7 8 8 8 9 9 10 11 11 12 13 13 13 13 14 14 14 14 14 14 14 14 14 14 14 13 13 12 12 11 10 10 11 12 12
9 9 9 9 8 8 8 8 7 7 8 7 7 7 7 7 7 6 6 7 7 7 7 6 6 7 7 7 7 7 7 7 7 7 7 7 7 7 7 7 7 7 7 7 7 7 7 7 7 7 7 8 8 8 9 9 10 11 11 12 12 13 13 12 13 14 14 14 14 14 14 14 13 13 13 13 13 12 12 11 9 9 10 11 11
10 10 10 9 9 9 9 8 8 8 8 8 8 8 8 7 7 7 7 7 7 7 7 7 7 7 7 7 8 7 7 8 8 8 8 8 8 8 8 8 8 7 7 7 7 8 7 7 7 7 7 8 8 8 9 10 10 11 11 11 12 12 12 12 12 13 13 13 13 14 14 13 13 13 13 13 12 12 11 10 9 9 9 9 10
11 11 11 10 10 10 9 9 9 9 9 9 9 8 8 8 8 8 8 8 8 8 8 8 8 8 8 8 8 8 8 8 8 8 8 8 8 8 8 8 8 7 7 7 8 8 8 8 7 7 8 8 9 9 9 10 10 11 11 11 11 12 12 12 11 11 12 13 13 13 13 13 13 12 13 13 12 12 11 9 8 8 8 8 8
12 12 11 11 10 10 10 10 10 10 10 10 9 9 9 9 9 9 9 9 9 9 9 9 9 8 8 9 9 8 8 8 9 9 9 9 9 9 9 8 8 8 8 8 8 8 9 9 8 8 8 9 10 10 10 10 10 11 11 11 11 11 11 11 10 10 11 12 12 12 13 13 13 12 12 12 12 11 11 10 9 8 7 7 7
12 12 12 12 11 11 11 10 10 10 10 10 10 10 10 10 10 10 10 10 9 9 9 10 9 9 9 9 10 9 9 9 9 9 9 10 10 10 10 9 9 9 9 9 9 9 10 9 9 9 9 10 10 11 11 11 11 11 11 12 12 11 11 11 10 10 10 11 11 11 12 12 12 12 12 12 12 12 11 10 9 8 7 6 6
13 13 13 12 12 12 12 11 11 11 11 11 11 11 11 11 11 11 11 11 11 11 11 11 11 11 11 11 11 11 10 10 10 10 10 10 10 11 11 10 10 10 10 10 10 10 10 10 10 10 10 11 11 11 11 11 11 11 11 12 12 11 11 11 10 10 10 10 10 11 11 11 12 12 12 12 12 11 11 10 10 9 8 6 6
14 14 13 13 13 13 12 12 12 12 12 12 12 12 12 12 12 12 12 12 12 12 12 12 12 12 12 12 12 12 12 12 12 11 11 11 11 11 12 12 11 11 11 11 11 11 11 11 11 11 11 11 11 11 11 11 11 11 12 12 12 12 11 11 10 10 10 10 10 10 10 10 11 11 11 11 11 11 10 10 10 9 8 7 7
15 15 15 14 14 14 14 13 13 13 13 13 12 12 12 12 12 13 13 13 13 13 13 13 13 13 14 14 14 13 13 13 13 13 13 13 13 13 13 13 13 13 13 12 12 12 12 12 12 12 12 12 12 12 11 11 11 11 11 12 12 12 12 11 11 11 11 10 10 10 10 9 10 10 10 10 10 10 10 10 10 10 9 8 7
17 16 16 15 15 15 15 15 15 14 14 14 14 14 14 14 14 14 14 14 14 14 14 14 14 14 15 15 15 15 15 15 14 14 14 14 14 14 14 14 14 14 14 14 14 13 13 13 13 13 13 13 13 13 12 12 12 12 12 12 12 12 12 11 11 11 11 11 10 10 10 9 9 9 10 10 10 10 10 10 10 10 10 9 8
17 17 17 17 16 16 16 16 16 16 16 15 15 15 15 15 15 15 15 15 15 15 15 15 15 15 15 15 15 16 16 16 16 16 15 15 15 15 15 15 15 15 15 15 15 15 15 15 15 14 14 14 14 13 13 13 13 13 12 12 12 12 12 12 11 11 11 11 11 10 10 10 10 9 9 10 10 10 10 10 10 10 10 10 9
18 18 18 17 17 17 17 16 16 16 16 16 16 16 17 17 17 17 17 17 17 17 17 17 16 16 16 16 16 17 17 17 17 17 17 16 16 16 16 16 16 16 16 16 16 16 16 16 16 16 16 15 14 14 14 14 13 13 13 13 13 13 12 12 12 11 12 12 11 11 11 10 10 9 9 9 9 9 10 10 10 10 10 10 10
19 18 18 18 18 17 17 17 17 16 16 16 16 16 17 18 18 18 18 18 18 18 18 18 18 18 18 18 18 18 18 18 18 18 18 17 17 17 17 17 17 17 17 17 17 17 17 17 17 17 17 16 15 15 15 14 14 14 14 14 14 14 13 13 13 12 12 12 12 11 11 11 10 9 9 9 9 9 9 9 10 10 10 10 10
19 18 18 18 18 18 17 17 17 17 16 16 16 16 17 17 18 19 19 19 19 19 19 19 19 19 19 19 18 18 18 18 18 18 18 18 18 18 18 18 18 18 18 19 19 18 18 18 18 18 18 17 17 16 16 15 15 15 15 15 15 15 14 14 14 13 12 12 12 12 11 11 10 9 9 9 8 8 9 9 9 10 10 10 10
19 19 19 19 18 18 18 18 18 18 17 17 17 17 18 18 19 19 19 19 19 19 19 19 19 19 19 19 19 19 19 19 19 19 19 19 19 19 19 19 20 20 20 20 20 20 20 19 19 19 19 18 18 17 17 17 17 17 16 16 16 15 15 15 14 13 13 13 13 12 12 11 10 9 9 8 8 8 8 9 9 9 9 10 10
20 20 20 20 20 20 19 19 19 18 18 18 19 19 19 19 20 20 20 20 20 20 20 20 20 20 20 20 20 20 20 20 20 20 21 21 21 22 22 22 22 22 22 21 21 21 21 21 20 20 20 19 19 18 18 18 18 18 18 17 17 16 16 15 14 14 14 14 14 13 12 11 10 9 9 9 9 9 9 9 9 9 9 9 9
21 21 21 21 20 20 20 20 19 19 19 19 20 20 20 20 21 21 21 21 21 21 21 21 21 21 21 22 22 23 23 23 23 23 23 24 24 24 25 25 25 24 24 23 22 22 22 21 21 21 21 20 20 20 19 19 19 19 19 18 18 17 16 15 15 15 15 15 15 14 13 12 11 10 9 9 10 9 9 10 10 10 10 9 9
21 21 21 21 21 21 20 20 20 20 20 21 21 21 21 21 22 21 21 22 22 22 22 23 23 23 23 23 24 24 25 25 26 26 26 27 27 27 27 27 27 26 26 25 23 23 23 22 22 21 21 21 21 21 20 20 20 20 19 19 18 17 16 16 16 15 15 16 16 15 13 12 11 10 10 10 11 11 10 11 11 10 10 10 10
21 21 21 21 21 21 21 22 21 21 22 22 22 23 23 23 24 23 23 24 24 24 24 24 24 25 25 26 26 26 27 28 28 28 29 29 29 29 29 29 28 28 27 27 26 25 24 23 22 22 22 22 21 21 21 21 21 20 20 19 18 17 17 17 17 16 17 17 16 15 14 13 12 11 11 11 11 12 12 12 12 11 11 11 11
22 22 22 21 21 21 22 22 22 22 22 23 23 23 24 25 25 26 26 26 26 26 26 27 27 27 27 28 28 28 29 29 30 30 30 31 31 32 32 32 31 30 29 28 27 26 25 24 23 22 22 22 22 22 21 21 21 21 20 19 18 18 18 18 18 18 17 17 17 16 15 14 13 12 12 13 13 13 13 13 12 12 12 12 12
21 21 21 21 21 21 21 21 21 21 22 22 23 23 23 24 25 26 27 27 28 28 28 28 28 28 29 29 29 29 30 30 30 31 31 31 32 32 32 32 32 32 31 29 28 26 25 24 23 23 23 22 22 22 22 21 21 21 21 20 19 19 19 19 18 18 18 17 16 16 15 15 14 14 14 14 14 14 14 13 13 13 13 13 13
Wind_Direction
118 117 115 114 114 113 111 111 110 109 108 107 106 105 102 101 102 104 107 110 110 108 107 106 105 104 102 101 99 99 100 101 102 101 100 99 98 97 98 98 97 94 90 86 81 76 70 64 58 53 48 44 40 36 31 27 24 22 21 21 21 19 17 17 17 16 15 15 16 14 12 10 9 7 6 3 0 358 354 351 348 343 340 337 334
118 117 116 115 115 113 112 112 111 110 109 108 106 103 101 101 103 105 107 110 110 109 108 107 105 104 103 102 101 101 102 103 103 101 99 98 97 96 96 96 95 92 88 83 78 73 67 61 55 51 46 41 37 32 28 24 22 20 19 19 19 17 16 15 15 13 13 13 13 13 11 8 7 5 3 2 359 356 353 350 347 343 339 336 334
119 117 116 116 116 115 114 113 112 112 110 108 105 102 101 103 105 105 106 110 111 110 110 108 106 105 104 104 103 103 104 105 104 102 100 99 98 96 94 93 92 89 85 79 74 68 62 57 52 47 42 37 32 28 25 22 20 18 16 16 16 15 13 12 11 10 9 9 10 10 8 6 4 3 1 360 358 355 352 350 347 343 339 336 334
118 117 117 117 117 116 116 115 114 113 111 108 105 102 103 105 106 106 108 111 113 112 111 110 108 107 107 106 105 105 107 107 106 104 102 100 98 96 93 91 88 85 81 76 71 65 59 52 47 43 38 33 28 24 22 20 18 15 13 12 12 11 9 8 8 6 5 5 6 7 6 4 2 1 359 357 355 354 351 349 347 344 340 337 335
119 118 119 119 118 118 118 117 115 114 112 110 106 103 104 106 106 106 110 114 115 114 113 112 110 110 110 109 108 107 108 109 108 106 103 100 97 93 90 88 84 81 77 72 66 59 52 44 39 34 30 26 23 20 19 17 15 12 10 8 8 7 5 5 4 3 3 3 4 4 4 3 1 359 358 356 354 353 351 348 346 344 341 339 336
122 122 122 122 121 121 120 119 117 116 115 113 108 103 104 106 106 106 111 116 117 116 115 113 111 111 112 111 110 109 109 110 110 108 104 100 95 90 85 82 79 76 71 65 56 47 39 32 27 24 21 19 17 16 15 13 11 9 7 6 5 4 3 3 3 2 2 2 2 2 2 1 360 358 357 355 354 353 351 348 346 344 342 340 338
125 126 126 125 125 124 123 121 119 119 118 115 109 105 104 106 107 107 111 116 118 118 116 113 111 110 110 111 112 111 112 112 111 109 105 101 95 88 82 76 71 66 60 52 44 36 28 22 18 16 14 13 11 11 10 9 7 5 4 3 3 2 1 2 2 1 0 360 360 0 0 360 359 358 357 356 354 353 352 350 348 346 344 343 341
128 129 129 128 128 126 124 122 121 121 119 116 112 107 106 107 108 108 112 117 119 120 117 114 111 109 109 112 114 115 115 115 114 111 107 101 93 86 79 71 63 56 48 41 36 31 23 16 13 11 10 10 8 7 6 5 4 2 2 2 1 360 359 0 1 360 359 358 358 359 359 358 358 357 357 356 355 355 353 352 350 348 347 346 344
132 133 133 131 130 128 126 124 123 122 120 117 114 110 107 107 109 111 115 119 121 121 118 116 113 110 109 112 116 119 119 116 115 112 108 102 92 82 71 62 53 45 37 30 27 25 19 14 11 10 9 8 7 6 5 2 0 359 360 359 359 358 358 358 358 358 358 357 357 358 357 357 356 356 356 356 356 355 355 355 353 351 350 349 348
136 136 137 135 132 130 129 127 124 123 121 119 118 113 108 107 109 113 116 122 126 125 122 119 116 113 111 113 117 120 119 116 114 111 106 100 91 79 65 51 40 30 24 20 17 16 13 11 8 7 6 6 4 3 2 360 358 357 357 357 357 357 356 356 356 356 356 356 356 357 356 355 354 355 355 355 356 356 357 357 357 355 354 353 352
138 139 139 138 136 133 131 129 127 125 124 123 122 118 112 107 109 115 119 124 130 131 130 124 118 116 114 115 119 121 119 115 113 107 100 94 86 68 51 37 25 16 11 9 8 8 7 6 4 2 1 0 359 357 357 356 355 354 354 356 356 355 355 355 354 355 355 355 355 355 354 353 352 353 355 356 357 357 358 359 359 359 358 357 357
140 142 143 142 140 137 135 133 131 130 129 128 126 122 116 110 111 117 119 125 130 135 137 130 123 120 117 118 121 123 121 115 107 98 90 83 65 43 27 16 8 1 358 359 359 358 358 357 356 354 354 354 353 352 352 352 353 352 353 354 354 353 354 354 354 355 355 354 354 354 353 352 351 352 354 356 358 359 360 1 2 2 2 1 1
142 144 147 148 147 144 141 139 137 137 136 135 132 127 121 116 118 121 118 117 123 130 133 129 125 121 116 116 120 126 126 113 93 74 64 52 29 18 10 360 353 350 349 350 350 349 349 349 348 347 348 349 349 349 350 350 350 350 351 352 352 352 353 354 354 355 355 355 355 354 353 352 352 352 354 357 359 360 1 2 3 4 5 5 5
144 146 150 153 153 151 149 147 145 144 144 144 140 134 127 121 122 123 117 110 113 121 124 123 121 116 112 112 115 128 135 118 66 29 13 359 345 342 344 343 341 342 342 341 342 342 342 343 343 343 344 346 348 349 349 349 349 349 350 351 351 352 353 354 355 356 357 357 357 356 354 354 354 354 356 358 0 2 2 3 5 6 7 8 9
143 146 149 153 155 155 155 154 152 151 152 152 147 140 134 128 124 123 119 113 114 120 122 122 121 118 115 112 110 125 143 131 33 348 339 333 322 316 320 326 331 335 337 338 339 339 338 340 342 342 343 345 346 347 349 349 349 349 349 351 352 352 353 354 355 356 358 358 359 359 358 358 358 357 357 359 2 3 3 4 6 8 10 12 12
141 143 146 150 154 156 158 159 157 156 157 156 152 146 142 138 132 127 123 120 119 123 124 123 123 124 122 117 116 126 138 111 330 306 316 326 322 314 316 322 328 333 336 339 341 340 339 339 340 341 343 344 344 346 348 349 350 351 351 352 353 353 353 354 355 357 359 359 0 1 1 1 1 359 359 360 2 4 4 5 7 9 11 14 15
141 141 143 147 152 155 158 160 160 159 159 159 156 154 150 147 143 134 127 125 128 131 131 127 123 122 120 122 129 133 115 345 314 291 305 318 317 313 316 322 326 331 335 338 341 342 342 340 339 340 342 343 343 345 348 350 351 352 352 352 352 353 354 354 355 358 359 359 1 2 2 2 2 1 0 0 2 4 5 6 8 10 13 16 17
145 144 144 145 148 153 158 162 164 163 163 163 162 161 159 156 151 143 135 131 136 144 143 137 129 121 116 128 156 203 286 324 308 293 301 307 309 309 315 323 325 329 334 337 339 342 343 341 340 341 341 342 343 345 347 349 350 349 350 351 351 352 354 355 356 358 359 360 1 1 2 3 3 1 1 1 3 5 6 8 10 12 15 18 19
150 150 149 149 149 152 157 162 167 170 171 170 169 168 169 168 163 156 152 146 143 149 155 156 152 143 130 149 191 241 260 290 302 302 300 302 309 309 316 326 326 328 333 335 337 339 340 341 341 342 342 343 344 345 347 348 347 347 348 350 351 353 354 355 356 357 359 1 1 0 1 2 2 2 2 2 5 6 7 10 11 14 17 19 21
153 155 156 156 155 156 157 162 167 171 175 176 176 176 177 181 180 174 170 166 159 156 164 174 177 174 173 235 257 277 276 284 296 305 304 304 311 314 320 328 329 329 333 335 335 335 336 338 339 340 343 346 347 346 347 347 346 347 349 351 352 354 354 355 356 357 359 360 360 360 1 2 3 4 5 5 6 7 9 11 12 15 18 20 22
157 159 161 161 161 161 161 164 167 170 173 177 180 182 186 191 191 187 184 184 185 183 183 185 189 193 217 300 295 293 293 296 298 305 310 308 312 318 325 330 332 334 337 339 338 335 336 339 341 342 344 347 347 347 348 347 346 349 351 352 353 354 355 356 357 357 357 357 358 359 1 2 3 6 7 7 8 8 10 12 13 17 19 21 23
164 164 165 165 164 165 166 169 172 173 175 179 184 188 192 197 199 199 196 199 204 210 212 214 220 232 257 289 296 295 297 301 304 310 314 311 311 317 323 329 333 337 341 341 341 340 341 343 345 347 346 347 348 348 348 347 348 350 351 352 353 355 356 357 357 357 356 356 357 359 0 1 3 6 7 7 8 8 10 12 15 18 20 22 24
174 173 175 174 173 174 175 178 180 181 182 183 187 193 198 203 206 210 211 213 219 226 233 236 243 253 265 277 286 294 297 301 306 310 311 310 313 316 322 328 330 336 340 341 342 345 346 346 348 349 348 348 348 347 346 347 349 350 350 352 355 357 358 358 358 358 357 357 358 360 0 0 2 4 4 5 6 8 11 13 16 18 21 23 25
184 184 185 185 186 187 189 190 191 191 191 190 193 199 205 210 215 221 225 227 230 237 243 247 252 259 268 277 283 290 294 300 305 306 305 307 312 315 321 326 328 333 337 340 343 346 348 348 350 351 350 349 349 347 346 347 349 350 352 355 357 357 358 358 358 358 357 358 359 360 360 359 0 1 2 3 5 7 12 15 17 19 22 23 26
193 194 194 194 195 198 200 201 202 203 203 203 206 209 213 218 223 228 232 237 242 247 249 253 258 261 268 275 280 285 289 293 298 300 301 302 306 311 318 323 326 331 336 340 341 342 344 347 350 351 351 351 350 349 349 350 353 355 355 357 357 357 356 356 357 357 357 357 358 359 358 357 358 359 360 3 6 9 14 18 18 19 23 24 26
198 200 202 202 204 206 208 210 211 213 215 218 220 222 226 229 234 237 239 243 249 253 257 260 262 264 269 275 278 282 285 289 293 295 298 300 303 308 314 319 321 326 332 337 341 343 344 347 350 352 352 352 352 352 353 355 357 357 355 355 355 356 355 354 354 354 355 356 357 358 357 356 356 358 1 4 8 12 17 19 18 19 23 25 27
205 205 206 209 212 215 216 219 220 221 223 226 229 232 234 237 242 246 248 249 250 254 259 263 266 269 273 277 280 281 285 289 291 293 296 298 303 308 315 321 323 326 330 334 339 343 345 346 348 352 353 353 354 355 356 358 357 354 353 354 353 354 353 352 352 353 355 356 357 358 357 356 357 1 5 7 11 16 19 20 18 20 24 26 28
213 212 210 212 217 220 223 226 227 229 229 230 233 236 239 242 246 251 254 254 255 257 261 264 267 269 272 275 278 280 284 287 288 289 292 295 301 306 312 318 321 324 327 328 333 339 342 344 345 349 353 354 354 356 356 356 354 351 352 353 352 351 351 351 352 354 356 358 359 360 359 360 2 6 9 10 14 18 20 20 19 21 25 27 29
217 218 218 219 221 224 227 230 231 232 233 234 237 239 241 245 248 252 255 256 259 261 263 266 269 271 274 276 277 279 283 285 286 286 288 291 297 301 305 309 313 317 320 322 327 332 337 341 342 344 349 352 352 353 353 352 351 349 350 351 350 349 350 352 355 356 358 360 1 1 2 4 7 10 13 14 16 19 20 19 20 23 26 28 31
220 221 223 225 227 229 231 233 233 234 235 238 241 243 246 248 250 252 254 255 259 260 261 265 269 272 275 277 280 281 281 282 283 284 286 289 292 296 299 301 303 306 310 314 318 325 330 336 339 339 342 346 348 348 348 347 347 347 348 348 349 349 350 354 357 359 0 2 2 4 6 9 11 12 14 15 16 18 18 17 20 25 27 29 32
226 227 228 229 230 232 234 235 236 236 237 241 243 245 248 249 250 253 255 256 258 259 261 264 267 270 273 276 279 280 280 280 281 282 283 286 289 292 295 296 295 295 299 305 310 316 322 327 332 335 336 339 343 345 343 343 344 345 347 348 348 349 351 355 359 360 1 3 5 7 9 10 11 12 12 13 14 15 15 16 21 27 28 29 32
229 230 232 233 233 234 235 237 238 239 241 244 246 247 249 249 251 254 256 257 258 261 264 266 269 271 272 275 276 278 280 280 280 281 282 284 287 290 292 292 291 290 292 296 300 306 314 319 324 329 332 335 339 341 340 340 342 344 346 348 348 349 352 354 357 360 1 3 6 8 9 9 10 11 10 10 11 12 13 17 22 26 28 29 31
230 231 233 235 236 236 236 237 239 242 244 246 248 249 251 251 253 256 257 258 259 262 265 268 271 272 273 276 278 279 280 279 279 280 282 284 287 290 291 291 292 291 291 291 294 301 308 312 317 320 325 330 334 336 337 338 340 341 343 345 346 348 350 351 354 358 360 1 4 6 7 8 8 9 9 8 10 12 13 17 20 23 26 29 30
231 232 233 234 236 237 238 239 241 244 246 248 249 250 251 253 255 258 259 259 260 263 266 269 271 271 274 277 279 280 279 278 279 281 282 285 287 289 290 291 292 291 290 291 293 298 302 306 310 313 317 324 328 329 331 333 335 337 339 341 343 344 346 348 350 354 356 358 -0 2 3 4 5 6 6 6 8 10 12 14 15 17 21 25 27
232 233 233 234 236 237 239 241 243 245 248 249 250 251 253 254 256 258 260 261 263 265 267 269 270 271 273 276 277 279 280 279 280 281 282 284 285 287 288 288 289 289 288 289 290 292 296 301 304 307 313 319 322 323 324 326 328 330 332 335 338 339 340 343 346 349 351 353 355 357 358 360 2 2 3 4 4 6 8 8 9 9 11 15 19
233 233 234 235 237 238 240 242 244 246 248 250 251 252 254 255 257 258 260 262 264 266 267 269 271 271 272 274 275 277 280 281 282 282 283 284 284 285 286 286 285 286 287 287 286 288 291 295 297 302 308 313 316 317 318 320 321 323 327 330 332 335 336 338 341 343 345 347 349 352 355 357 359 360 0 2 2 3 3 3 3 3 3 3 6
233 234 235 236 238 239 241 243 245 247 249 251 253 254 255 256 258 260 261 263 265 266 268 269 270 271 271 273 274 276 278 279 281 282 283 283 284 284 284 284 283 284 285 285 284 285 286 289 292 297 301 305 309 311 313 316 317 318 322 325 327 330 332 333 335 336 338 341 343 347 351 354 356 357 358 360 1 2 2 3 2 2 1 357 356
234 235 236 238 239 240 242 244 246 248 251 253 255 256 256 257 259 261 263 264 266 267 269 270 270 271 271 272 273 275 276 277 278 280 281 282 282 282 282 283 282 282 282 282 282 282 283 285 289 293 297 301 304 306 308 311 313 315 318 320 322 325 327 328 329 331 333 337 340 343 346 350 354 356 358 359 0 1 3 4 5 5 4 359 354
236 237 238 239 241 243 244 246 248 250 252 255 256 257 258 259 260 262 263 264 266 267 269 270 270 271 272 272 273 274 274 275 277 278 280 280 280 280 281 281 282 282 281 280 279 280 281 283 286 290 295 299 301 302 303 305 307 309 313 316 318 320 321 322 323 325 327 331 336 339 342 345 349 354 357 359 0 1 3 5 6 6 7 4 359
239 240 240 242 243 245 246 247 249 251 253 255 257 258 259 260 261 262 264 265 266 267 269 270 270 270 271 272 273 273 274 275 276 277 278 279 279 279 279 279 279 279 279 278 277 278 279 281 283 286 291 296 298 299 300 301 302 304 308 311 313 314 315 315 317 319 320 323 327 330 332 335 338 344 349 353 356 358 359 0 2 3 4 3 1
240 241 242 243 245 246 247 249 250 253 254 256 257 259 260 261 263 264 265 266 267 268 269 270 271 271 272 272 273 273 274 275 275 276 276 277 278 279 279 278 279 278 278 277 276 277 278 279 280 283 286 290 293 294 296 297 298 301 304 307 308 309 309 308 310 314 316 317 320 322 323 326 328 331 337 343 349 353 353 354 355 357 357 358 358
241 242 243 245 246 247 248 250 252 254 256 257 259 260 261 262 263 264 265 266 267 268 269 270 270 271 272 273 274 274 274 275 275 275 276 276 276 277 278 278 279 279 279 278 277 277 277 278 279 280 283 285 287 289 291 293 294 297 301 303 304 304 304 303 304 308 312 312 314 315 316 317 318 320 325 333 340 345 347 348 349 350 351 353 353
241 242 244 245 246 248 249 251 253 254 256 259 262 263 263 263 263 264 265 266 267 266 267 267 268 269 271 273 274 275 275 275 275 275 275 276 276 276 276 277 278 279 279 278 278 278 277 278 278 279 280 282 284 286 288 289 291 293 297 299 300 300 300 299 298 301 306 308 308 309 310 309 310 311 314 322 330 336 339 341 343 345 347 348 349
240 241 243 245 246 247 250 251 253 255 256 259 262 263 264 265 266 265 265 266 266 266 265 266 267 268 270 271 273 274 274 275 275 275 275 276 277 276 276 277 278 279 279 279 278 278 278 278 278 277 278 280 282 284 285 287 288 290 292 295 296 296 296 295 294 296 301 304 305 306 305 303 303 304 307 312 320 326 330 334 337 339 342 343 344
240 242 244 245 246 247 249 251 253 255 257 260 263 264 265 266 267 267 266 266 267 266 265 265 266 267 268 270 271 273 274 275 275 275 276 277 277 276 276 277 277 277 277 277 276 276 276 277 277 277 277 278 280 281 282 284 286 288 290 291 292 292 292 291 291 293 297 300 301 303 302 298 296 297 299 304 310 315 320 325 330 333 336 337 339
241 242 243 244 246 248 249 251 253 256 258 261 263 264 265 266 267 267 266 266 266 266 266 266 266 267 268 269 270 271 273 274 274 275 276 276 275 274 275 276 277 276 276 276 275 274 273 274 274 275 276 277 277 279 280 282 284 286 288 289 289 288 287 287 287 290 294 297 298 298 296 292 289 290 293 296 302 307 313 319 324 328 330 332 334
242 242 243 245 247 249 251 253 255 257 259 262 264 265 266 267 267 266 265 265 265 265 265 266 267 268 268 269 270 271 272 273 274 275 276 276 274 274 274 275 276 275 274 274 275 274 272 272 272 274 274 275 275 276 279 281 282 284 285 286 286 284 282 282 283 285 289 294 295 293 288 285 284 284 288 291 294 299 306 314 319 322 324 326 327
243 244 245 247 250 251 253 255 257 258 261 264 266 266 267 268 267 266 265 265 265 265 266 266 267 267 268 269 270 272 273 273 274 275 275 275 274 274 274 274 274 273 272 272 272 272 272 272 272 273 274 275 275 276 277 279 281 282 283 283 282 280 278 278 279 281 285 290 292 289 283 281 280 280 282 286 289 292 297 304 311 315 318 319 320
243 244 246 249 251 253 255 257 259 260 263 266 267 267 268 269 268 267 266 266 266 267 267 267 268 269 270 271 272 273 274 275 275 275 275 274 274 274 274 273 272 272 271 270 269 269 269 269 270 272 273 274 275 275 276 277 278 279 280 279 278 276 275 276 277 278 281 286 288 284 279 277 278 277 278 281 286 289 291 296 301 305 309 312 314
244 245 247 250 252 254 256 258 260 261 264 266 268 269 270 271 270 269 268 267 267 267 268 269 270 271 272 273 274 275 275 276 276 276 275 274 274 273 273 272 271 270 269 268 267 265 264 265 267 269 270 271 273 274 275 276 275 275 276 276 275 274 274 274 275 277 279 282 283 280 275 274 276 276 275 277 281 285 288 292 295 298 300 303 305
244 245 247 250 252 255 257 259 261 263 264 267 269 270 272 273 273 271 269 268 268 268 269 270 271 272 274 275 276 276 276 276 277 277 276 274 273 272 273 272 270 269 267 265 265 264 261 261 264 267 268 269 272 274 275 275 274 273 273 273 273 273 273 273 274 275 275 277 278 275 272 272 275 276 275 275 277 281 285 289 291 293 295 296 298